User: anonymous   Login
Location: Cherry Springs State Park
(41.6616°N, 77.8240°W)
Time: 16:15:44
(UTC-05:00)
Language:

Cosmos 1437 - Orbit

View from above orbital plane
View from above orbital plane
View from above satellite
View from above satellite

Ground track
Ground track

The orbit data is extracted from the following two-line orbital elements,

1 13770U 83003A   17323.52289661  .00007377  00000-0  11529-3 0  9992
2 13770  81.1550 317.4597 0007707  76.6880 283.5228 15.53566644910625
Epoch (UTC): 19 November 2017 12:32:58
Eccentricity: 0.0007707
inclination: 81.1550°
perigee height: 401 km
apogee height: 411 km
right ascension of ascending node: 317.4597°
argument of perigee: 76.6880°
revolutions per day: 15.53566644
mean anomaly at epoch: 283.5228°
orbit number at epoch: 91062

The dashed part of the orbit path shows where the satellite is in the earth's shadow,  

DLR